Location: Bosdarros
(43.2167°N, 0.3667°W)
Time: 11:51:03
(UTC+00:00)

FENGYUN 1C DEB - Pass Details

Date: 30 October 2021
Orbit: 805 x 871 km, 98.8° (Epoch: 26 November)

Event Time Altitude Azimuth Distance (km) Brightness Sun altitude
Exits shadow 20:55:14 14° 280° (W) 2,120 ? -43.5°
Drops below altitude 10° 20:57:21 10° 303° (WNW) 2,406 ? -43.8°
Sets 21:00:53 0° 328° (NNW) 3,355 ? -44.4°
